This demonstration page uses our WeatherBlox Daily Observations layout. Learn more.

Left ArrowRight Arrow

39.01783, -85.05884

Hourly Observations for March 27, 2022

Temp ( °F °C ) Dew Point ( °F °C ) Humidity (%) Winds ( mph kmh ) Pressure ( in mb ) Visibility ( mi km ) Precip ( " mm )
12:52 am 00:52 Cloudy 30 -1.1 18 -7.8 61 61 NW 20 31 30.00 1016 10 16 0.00 0.00
1:52 am 01:52 Cloudy 30 -1.1 18 -7.8 61 61 NW 15 24 29.99 1016 10 16 0.00 0.00
2:52 am 02:52 Cloudy 29 -1.7 18 -7.8 63 63 WNW 15 24 30.00 1016 10 16 0.00 0.00
3:11 am 03:11 Cloudy 29 -1.7 17 -8.3 61 61 WNW 17 28 30.04 1017 10 16 0.00 0.00
3:52 am 03:52 Cloudy 29 -1.7 16 -8.9 58 58 NW 16 26 30.00 1016 10 16 0.00 0.00
4:52 am 04:52 Cloudy 29 -1.7 17 -8.3 61 61 NNW 15 24 30.01 1016 10 16 0.00 0.00
5:52 am 05:52 Cloudy 29 -1.7 16 -8.9 58 58 NNW 12 19 30.02 1017 10 16 0.00 0.00
6:52 am 06:52 Cloudy 29 -1.7 16 -8.9 58 58 WNW 10 17 30.04 1017 10 16 0.00 0.00
7:52 am 07:52 Cloudy 29 -1.7 17 -8.3 61 61 NW 8 13 30.06 1018 10 16 0.00 0.00
8:52 am 08:52 Mostly Cloudy 29 -1.7 17 -8.3 61 61 WNW 16 26 30.10 1019 10 16 0.00 0.00
9:52 am 09:52 Partly Cloudy 30 -1.1 17 -8.3 58 58 NW 12 19 30.11 1020 10 16 0.00 0.00
10:52 am 10:52 Partly Cloudy 33 0.6 17 -8.3 52 52 NW 17 28 30.13 1020 10 16 0.00 0.00
11:52 am 11:52 Mostly Cloudy 34 1.1 18 -7.8 52 52 NW 10 17 30.15 1021 10 16 0.00 0.00
12:52 pm 12:52 Partly Cloudy 35 1.7 16 -8.9 46 46 WNW 17 28 30.13 1020 10 16 0.00 0.00
1:52 pm 13:52 Partly Cloudy 38 3.3 17 -8.3 43 43 WNW 14 22 30.12 1020 10 16 0.00 0.00
2:52 pm 14:52 Partly Cloudy 39 3.9 17 -8.3 41 41 WNW 22 35 30.11 1020 10 16 0.00 0.00
3:52 pm 15:52 Mostly Sunny 41 5 16 -8.9 36 36 NW 14 22 30.09 1019 10 16 0.00 0.00
4:52 pm 16:52 Mostly Sunny 41 5 17 -8.3 38 38 NNW 15 24 30.09 1019 10 16 0.00 0.00
5:52 pm 17:52 Mostly Sunny 41 5 18 -7.8 39 39 NW 16 26 30.10 1019 10 16 0.00 0.00
6:52 pm 18:52 Mostly Sunny 39 3.9 18 -7.8 43 43 NW 15 24 30.11 1020 10 16 0.00 0.00
7:52 pm 19:52 Mostly Sunny 36 2.2 18 -7.8 48 48 NW 13 20 30.13 1020 10 16 0.00 0.00
8:52 pm 20:52 Clear 33 0.6 18 -7.8 54 54 NNW 9 15 30.14 1021 10 16 0.00 0.00
9:52 pm 21:52 Clear 31 -0.6 18 -7.8 59 59 N 10 17 30.16 1022 10 16 0.00 0.00
10:52 pm 22:52 Clear 30 -1.1 17 -8.3 58 58 N 12 19 30.16 1021 10 16 0.00 0.00
11:52 pm 23:52 Clear 28 -2.2 17 -8.3 63 63 N 12 19 30.17 1022 10 16 0.00 0.00

Powered by AerisWeather